カタリナ-マクノート彗星

319P/Catalina-McNaught (2015)

English version
Home page
Updated on June 11, 2016

---------------------------------------------------------------------

・ プロフィール

符号 319P/2015 G1
検出日 2015年4月5日
検出光度 19等
検出者 Near-Earth Object Wide-field Infrared Survey Explorer (NEOWISE)

・ 写真集

・ 軌道要素

Epoch 2015 June 27.0 TT = JDT 2457200.5
T 2015 July 1.75528 TT                                  MPCW
q   1.1967314            (2000.0)            P               Q
n   0.14579358     Peri.  203.66542     +0.69460121     +0.67740047
a   3.5752832      Node   111.36350     -0.61152319     +0.73329990
e   0.6652765      Incl.   15.07380     -0.37890440     +0.05830836
P   6.76
From 319 observations 2008 May 2-2015 Dec. 6, mean residual 0".5.

・ 星図

・ 光度変化

        m1 = 16.3 + 5 logΔ + 10.0 log r

---------------------------------------------------------------------

軌道要素はM.P.E.C. 2015-Y73に掲載されたものです。
星図はステラナビゲータ Ver.8 (アストロアーツ) で作成したものです。
光度グラフはComet for Windowsで作成したものです。

---------------------------------------------------------------------

Copyright(C) Seiichi Yoshida (comet@aerith.net). All rights reserved.